[Date Prev][Date Next][Thread Prev][Thread Next] - [Date Index][Thread Index][Author Index]

MIR Keps 1-9




These keps will update yesterdays keps by 12 sec's -
REMBER to send only in UNPROTO [ UI ] 
Hve Fun and enjoy..

Dave
N6CO



MIR
1 16609U 86017A   99040.49416503  .00015028  00000-0  12301-3 0  2009
2 16609  51.6613 278.0203 0014500 110.2927 249.9628 15.70655825741310

----
Via the sarex mailing list at AMSAT.ORG courtesy of AMSAT-NA.
To unsubscribe, send "unsubscribe sarex" to Majordomo@amsat.org



AMSAT Top AMSAT Home